Weather in Nagibovo

Russia / Jewish Autonomous Oblast     47°44′37″N   131°32′03″E
temp.,
°C
wind,
m/s
gust,
m/s
humid.,
%
clouds,
%
prec.,
mm/h
press.,
hPa
HPBL,
m
18 october, mon
mon1801:00−4wnw34475 0.0 101976
04:00−5w335213 0.0 102036
07:00−5w22565 0.0 102123
10:00−1nw33425 0.0 1022338
13:00+3nw33305 0.0 10211688
16:00+4nw342786 0.0 10212086
19:000nnw49331 0.0 1023195
22:00−2nnw36370 0.0 1024104
19 october, tue
tue1901:00−4nw34400 0.0 102556
04:00−5wnw36430 0.0 102688
07:00−5wnw36450 0.0 102698
10:00−1nw46330 0.0 1027377
13:00+3wnw56270 0.0 10251524
16:00+4nw46230 0.0 10231789
19:000wnw11335 0.0 102310
22:00−1n113775 0.0 102310
20 october, wed
wed2001:00−1w3340100 0.0 102232
04:00−1w344565 0.0 102163
07:00−2wnw345613 0.0 102168
10:00+2nw47450 0.0 1021333
13:00+7nw56340 0.0 10201253
16:00+8nw66321 0.0 10191569
19:00+3nw49450 0.0 1020164
22:00+1nw49530 0.0 1020140
21 october, thu
thu2101:000wnw36590 0.0 1020102
04:00−1wnw48660 0.0 1020127
07:00−2wnw49710 0.0 1020155
10:00+2wnw59530 0.0 1021396
13:00+7nw673753 0.0 10201096
16:00+9nw573358 0.0 10181443
19:00+4nnw364713 0.0 101979
22:00+3wnw365396 0.0 1019107
22 october, fri
fri2201:00+2w34575 0.0 102057
04:00+1w35600 0.0 102067
07:000w37690 0.0 1020109
10:00+4wnw59550 0.0 1021366
13:00+9wnw57360 0.0 10201172
16:00+11wnw57310 0.0 10191511
19:00+7wsw49485 0.0 1019129
22:00+5w511575 0.0 1020233